EW5069 Weather Reports


Display with metric or nautical units.
time (UTC)temp
F
wind
direction
speed
MPH
gust
MPH
rain 1hr
in
rain 24hr
in
rain mn
in
humidity
%
barometer
mb
20260505124538 57 360 0.0 0.0 0.00 0.27 0.27 90 1006.3
20260505123033 56 360 0.0 0.0 0.00 0.27 0.27 90 1006.5
20260505121536 56 194 0.0 0.0 0.00 0.27 0.27 90 1006.1
20260505120053 55 360 0.0 0.0 0.00 0.27 0.27 90 1005.6
20260505114525 55 173 0.0 0.0 0.00 0.27 0.27 90 1005.2
20260505113027 55 211 0.0 0.0 0.00 0.27 0.27 90 1005.7
20260505111521 54 360 0.0 0.0 0.00 0.27 0.27 90 1006.0
20260505101520 54 360 0.0 0.0 0.00 0.27 0.27 90 1005.0
20260505100020 54 360 0.0 0.0 0.00 0.27 0.27 90 1004.7
20260505094509 54 360 0.0 0.0 0.00 0.27 0.27 90 1004.3
20260505093008 54 360 0.0 0.0 0.00 0.27 0.27 90 1004.1
20260505091520 54 221 0.0 0.0 0.00 0.27 0.27 90 1003.9
20260505090012 55 198 0.0 0.0 0.00 0.27 0.27 89 1003.5
20260505084502 56 360 0.0 0.0 0.00 0.27 0.27 89 1003.8
20260505083001 56 360 0.0 0.0 0.00 0.27 0.27 89 1003.3
20260505081504 56 360 0.0 0.0 0.00 0.27 0.27 88 1002.5
20260505080100 56 360 0.0 0.0 0.00 0.27 0.27 88 1002.6
20260505074602 56 159 0.0 0.0 0.00 0.27 0.27 89 1002.6
20260505073111 56 360 0.0 0.0 0.01 0.27 0.27 90 1003.9
20260505071601 56 360 0.0 0.0 0.03 0.27 0.27 90 1003.7
20260505070057 55 360 0.0 0.0 0.07 0.27 0.27 90 1003.6
20260505064556 55 360 0.0 0.0 0.11 0.27 0.27 90 1003.9
20260505063054 55 144 0.0 0.0 0.15 0.26 0.26 89 1003.5
20260505061556 56 144 0.0 0.0 0.16 0.24 0.24 89 1004.0
20260505060052 56 360 0.0 0.0 0.14 0.20 0.20 90 1005.0
20260505054609 56 360 0.0 0.0 0.13 0.16 0.16 89 1005.5
20260505053100 56 360 0.0 0.0 0.09 0.10 0.10 89 1005.3
20260505051545 57 360 0.0 0.0 0.08 0.08 0.08 88 1005.4
20260505041528 64 326 0.0 0.0 0.00 0.00 0.00 65 1003.6
20260505040024 66 360 0.0 0.0 0.00 0.00 0.00 62 1002.9
20260505034625 66 360 0.0 0.0 0.00 0.00 0.00 61 1002.2
20260505033024 66 184 0.0 0.0 0.00 0.00 0.00 61 1001.8
20260505031539 67 360 0.0 0.0 0.00 0.00 0.00 61 1001.9
20260505030023 67 360 0.0 0.0 0.00 0.00 0.00 61 1001.9
20260505024532 67 360 0.0 0.0 0.00 0.00 0.00 61 1001.8
20260505023027 67 360 0.0 0.0 0.00 0.00 0.00 60 1001.9
20260505021526 67 360 0.0 0.0 0.00 0.00 0.00 60 1002.1
20260505020029 67 360 0.0 0.0 0.00 0.00 0.00 59 1002.0
20260505014527 67 360 0.0 0.0 0.00 0.00 0.00 58 1001.8
20260505013021 68 360 0.0 0.0 0.00 0.00 0.00 56 1001.6
20260505011529 69 175 0.0 0.0 0.00 0.00 0.00 54 1001.5
20260505010017 70 188 0.0 0.0 0.00 0.00 0.00 53 1001.5
20260505004534 70 360 0.0 0.0 0.00 0.00 0.00 53 1001.5
20260505003017 71 360 0.0 0.0 0.00 0.00 0.00 52 1001.4
20260505001517 71 360 0.0 0.0 0.00 0.00 0.00 51 1001.1
20260505000031 71 360 0.0 0.0 0.00 0.00 0.00 52 1001.1
20260504234513 72 360 0.0 0.0 0.00 0.00 0.00 51 1000.9
20260504233010 72 360 0.0 0.0 0.00 0.00 0.00 56 1001.3
20260504231508 72 190 0.0 0.0 0.00 0.00 0.00 58 1001.6
20260504230006 71 360 0.0 0.0 0.00 0.00 0.00 62 1002.0
20260504224506 72 360 0.0 0.0 0.00 0.00 0.00 62 1002.2
20260504223003 70 360 0.0 0.0 0.00 0.00 0.00 63 1002.3
20260504221504 72 194 0.0 0.0 0.00 0.00 0.00 62 1002.5
20260504220104 70 360 0.0 0.0 0.00 0.00 0.00 60 1002.6
20260504214600 71 188 0.0 0.0 0.00 0.00 0.00 58 1002.6
20260504213105 71 360 0.0 0.0 0.00 0.00 0.00 59 1002.9
20260504211607 70 360 0.0 0.0 0.00 0.00 0.00 58 1002.9
20260504210056 71 360 0.0 0.0 0.00 0.00 0.00 55 1003.0
20260504204601 72 360 0.0 0.0 0.00 0.00 0.00 53 1002.9
20260504203102 72 360 0.0 0.0 0.00 0.00 0.00 54 1002.9
20260504201552 72 360 0.0 0.0 0.00 0.00 0.00 56 1003.0
20260504200050 72 191 0.0 0.0 0.00 0.00 0.00 57 1003.1
20260504194549 72 360 0.0 0.0 0.00 0.09 0.00 55 1003.3
20260504193047 72 188 0.0 0.0 0.00 0.09 0.00 55 1003.5
20260504191543 72 360 0.0 0.0 0.00 0.09 0.00 57 1003.6
20260504190041 73 360 0.0 0.0 0.00 0.09 0.00 56 1003.8
20260504184540 73 360 0.0 0.0 0.00 0.10 0.00 54 1003.6
20260504183039 73 360 0.0 0.0 0.00 0.10 0.00 55 1003.6
20260504181535 72 360 0.0 0.0 0.00 0.10 0.00 57 1003.7
20260504180036 72 360 0.0 0.0 0.00 0.10 0.00 59 1003.8
20260504174532 71 360 0.0 0.0 0.00 0.10 0.00 58 1003.7
20260504173029 71 360 0.0 0.0 0.00 0.10 0.00 60 1003.8
20260504171525 71 360 0.0 0.0 0.00 0.10 0.00 61 1004.0